EW0146 Weather Reports


time (UTC)temp
F
wind
direction
speed
knots
gust
knots
rain 1hr
in
rain 24hr
in
rain mn
in
humidity
%
barometer
mb
20260906093012 49 360 8.7 19.1 0.00 0.01 0.00 77 1007.8
20260906091602 48 360 8.7 19.1 0.00 0.01 0.00 76 1007.6
20260906090011 48 360 9.6 20.0 0.00 0.01 0.00 76 1007.4
20260906084512 48 360 9.6 17.4 0.00 0.02 0.00 78 1007.3
20260906083103 48 360 9.6 18.2 0.00 0.02 0.00 77 1007.1
20260906081508 48 360 9.6 19.1 0.00 0.02 0.00 78 1007.0
20260906080013 48 360 11.3 19.1 0.00 0.02 0.00 79 1006.8
20260906074503 48 360 12.2 20.9 0.00 0.02 0.00 78 1006.8
20260906073105 48 360 10.4 20.9 0.00 0.02 0.00 79 1006.6
20260906071610 47 360 7.8 20.0 0.00 0.02 0.00 78 1006.4
20260906070010 48 360 11.3 19.1 0.00 0.02 0.00 78 1006.1
20260906064610 48 360 10.4 20.9 0.00 0.03 0.00 80 1006.0
20260906063001 48 360 12.2 19.1 0.00 0.03 0.00 79 1005.6
20260906061501 48 360 8.7 19.1 0.00 0.03 0.00 80 1005.4
20260906060112 48 360 10.4 21.7 0.00 0.03 0.00 79 1005.3
20260906054601 48 360 9.6 20.0 0.00 0.03 0.00 78 1005.2
20260906053109 48 360 10.4 24.3 0.00 0.03 0.00 77 1005.0
20260906051514 48 360 12.2 21.7 0.00 0.03 0.00 77 1004.8
20260906050004 48 360 8.7 21.7 0.00 0.04 0.00 78 1004.7
20260906044610 48 360 9.6 22.6 0.00 0.04 0.00 78 1004.6
20260906043010 48 360 8.7 20.9 0.00 0.04 0.00 79 1004.5
20260906041610 48 360 9.6 20.9 0.00 0.04 0.00 79 1004.3
20260906040002 48 360 10.4 21.7 0.00 0.04 0.00 79 1004.2
20260906034600 48 360 13.0 22.6 0.00 0.04 0.00 78 1004.0
20260906033101 48 360 8.7 20.9 0.00 0.04 0.00 77 1003.9
20260906031606 49 360 13.0 21.7 0.00 0.04 0.00 77 1003.8
20260906030101 49 360 13.0 22.6 0.00 0.04 0.00 76 1003.6
20260906024501 49 360 10.4 23.5 0.00 0.04 0.00 78 1003.6
20260906023001 49 360 10.4 23.5 0.00 0.04 0.00 79 1003.4
20260906021606 49 360 10.4 19.1 0.00 0.04 0.00 79 1003.2
20260906020111 49 360 12.2 21.7 0.00 0.04 0.00 77 1003.2
20260906014601 50 360 10.4 19.1 0.00 0.05 0.00 77 1002.9
20260906013111 50 360 9.6 22.6 0.00 0.05 0.00 76 1002.8
20260906011610 50 360 10.4 21.7 0.00 0.05 0.00 76 1002.6
20260906010100 50 360 10.4 22.6 0.00 0.05 0.00 77 1002.5
20260906004601 51 346 9.6 22.6 0.00 0.05 0.00 77 1002.5
20260906003105 50 360 7.8 20.0 0.00 0.05 0.00 76 1002.4
20260906001511 51 360 10.4 20.9 0.00 0.05 0.00 77 1002.3
20260905234602 51 333 9.6 19.1 0.00 0.06 0.00 76 1002.0
20260905233002 51 360 7.8 18.2 0.00 0.06 0.00 79 1002.0
20260905231602 51 360 9.6 17.4 0.00 0.06 0.00 79 1001.9
20260905230115 51 360 7.8 17.4 0.00 0.06 0.00 78 1001.8
20260905224511 51 360 9.6 17.4 0.00 0.07 0.00 79 1001.8
20260905223101 51 360 10.4 18.2 0.00 0.07 0.00 79 1001.8
20260905221606 51 360 8.7 17.4 0.00 0.07 0.00 80 1001.7
20260905220002 51 360 8.7 20.0 0.00 0.07 0.00 81 1001.6
20260905214501 51 360 7.0 15.6 0.00 0.07 0.00 81 1001.5
20260905213001 51 360 9.6 17.4 0.00 0.07 0.00 81 1001.5
20260905211502 52 360 9.6 16.5 0.00 0.07 0.00 82 1001.3
20260905210115 52 360 8.7 20.0 0.00 0.07 0.00 82 1001.1
20260905204607 52 360 7.8 18.2 0.00 0.08 0.07 83 1001.1
20260905203012 52 360 7.0 18.2 0.00 0.08 0.07 81 1001.1
20260905201602 52 360 10.4 18.2 0.00 0.08 0.07 81 1000.9
20260905200012 52 360 9.6 19.1 0.00 0.08 0.07 81 1000.8
20260905194502 52 360 8.7 16.5 0.00 0.09 0.07 80 1000.8
20260905193001 52 360 10.4 18.2 0.00 0.09 0.07 81 1000.8
20260905191502 52 360 10.4 20.9 0.00 0.09 0.07 81 1000.7
20260905184502 52 360 11.3 19.1 0.00 0.11 0.07 84 1000.6
20260905183101 52 360 11.3 22.6 0.00 0.11 0.07 85 1000.4
20260905181502 52 360 11.3 25.2 0.00 0.11 0.07 84 1000.2
20260905180010 52 360 11.3 22.6 0.00 0.11 0.07 85 1000.2
20260905174512 52 360 8.7 21.7 0.00 0.14 0.07 85 1000.1
20260905173101 52 360 8.7 20.9 0.00 0.14 0.07 85 1000.0
20260905171519 51 360 9.6 22.6 0.00 0.14 0.07 88 999.7
20260905170012 52 360 10.4 20.0 0.00 0.14 0.07 85 999.6
20260905164501 52 360 11.3 21.7 0.00 0.18 0.07 85 999.4
20260905163103 52 360 10.4 21.7 0.00 0.18 0.07 85 999.4
20260905161512 52 360 11.3 20.9 0.00 0.18 0.07 86 999.1
20260905160136 52 360 11.3 23.5 0.00 0.18 0.07 86 999.1
20260905154603 51 360 10.4 18.2 0.00 0.22 0.07 86 998.8
20260905153103 51 360 9.6 18.2 0.00 0.22 0.07 89 998.8
20260905151505 51 360 8.7 20.9 0.00 0.22 0.07 89 998.7
20260905150002 51 360 8.7 18.2 0.00 0.26 0.07 89 998.6
20260905144513 51 360 11.3 22.6 0.00 0.26 0.07 88 998.4
20260905143002 51 360 8.7 22.6 0.00 0.26 0.07 88 998.3
20260905141502 51 360 10.4 19.1 0.00 0.26 0.07 88 998.2
20260905140002 51 360 13.0 25.2 0.00 0.31 0.07 88 998.0
20260905134503 51 360 13.9 22.6 0.00 0.31 0.07 87 997.9
20260905133002 51 360 11.3 20.9 0.01 0.31 0.07 87 997.8
20260905131606 51 360 11.3 21.7 0.01 0.31 0.07 87 997.7
20260905130012 51 360 7.8 20.0 0.01 0.31 0.07 87 997.6
20260905124602 51 360 11.3 22.6 0.01 0.37 0.07 87 997.5
20260905123103 51 360 10.4 22.6 0.00 0.36 0.06 88 997.5
20260905121512 51 360 9.6 20.9 0.00 0.36 0.06 87 997.3
20260905120010 52 360 9.6 20.0 0.00 0.36 0.06 87 997.2
20260905114512 51 360 10.4 21.7 0.00 0.39 0.06 88 997.0
20260905113104 51 360 11.3 20.0 0.00 0.39 0.06 89 996.8
20260905111504 51 360 12.2 20.0 0.00 0.39 0.06 89 996.7
20260905110002 51 360 13.0 20.9 0.00 0.44 0.06 90 996.4
20260905104601 51 360 13.9 23.5 0.00 0.44 0.06 91 996.2
20260905103103 51 360 9.6 19.1 0.00 0.44 0.06 92 996.0
20260905101502 51 360 11.3 20.9 0.00 0.44 0.06 92 995.8
20260905100002 51 360 13.0 23.5 0.00 0.50 0.06 91 995.7
20260905094603 52 360 11.3 24.3 0.00 0.50 0.06 90 995.6